Early, TX

9:19 PM CST on February 19, 2017 (GMT -0600)
Brownwood Regional

Weather History for KBWD - March, 2014

Change the Weather History Date:

Sunday, March 16, 2014

  Actual Average (KABI) Record (KABI)
Temperature  
Mean Temperature 50 °F -  
Max Temperature 57 °F 64 °F 91 °F (1908)
Min Temperature 44 °F 42 °F 20 °F (1895)
Degree Days  
Heating Degree Days 14    
Moisture  
Dew Point 37 °F    
Average Humidity 64    
Maximum Humidity 94    
Minimum Humidity 47    
Precipitation  
Precipitation 0.00 in - - ()
Sea Level Pressure  
Sea Level Pressure 30.01 in    
Wind  
Wind Speed 17 mph (North)    
Max Wind Speed 31 mph    
Max Gust Speed 39 mph    
Visibility 10 miles    
Events      
Averages and records for this station are not official NWS values.
T = Trace of Precipitation, MM = Missing Value Source: NWS Daily Summary

Daily Weather History Graph

Daily Weather History Graph

Search for Another Location

Airport or City:

Trip Planner

Search our weather history database for the weather conditions in past years. The results will help you decide how hot, cold, wet, or windy it might be!

Date:

Astronomy

Mar. 16, 2014 Rise Set
Actual Time 7:44 AM CDT 7:44 PM CDT
Civil Twilight 7:20 AM CDT 8:08 PM CDT
Nautical Twilight 6:52 AM CDT 8:37 PM CDT
Astronomical Twilight 6:23 AM CDT 9:05 PM CDT
Moon 8:00 PM CDT (3/16) 7:30 AM CDT (3/16)
Length of Visible Light 12h 48m
Length of Day
12h 00m
Full, 100% of the Moon is Illuminated
Mar 16
Full
Mar 16
Full
Mar 23
Last Quarter
Mar 30
New
Apr 7
First Quarter

Hourly Weather History & Observations

Time (CDT) Temp. Windchill Dew Point Humidity Pressure Visibility Wind Dir Wind Speed Gust Speed Precip Events Conditions
12:15 AM 57.2 °F - 55.4 °F 94% 29.81 in 10.0 mi North 10.4 mph 17.3 mph N/A   Overcast
12:35 AM 57.2 °F - 53.6 °F 88% 29.82 in 10.0 mi North 12.7 mph 21.9 mph N/A   Overcast
12:55 AM 55.4 °F - 53.6 °F 94% 29.81 in 10.0 mi North 9.2 mph - N/A   Mostly Cloudy
1:15 AM 55.4 °F - 53.6 °F 94% 29.80 in 10.0 mi NNE 6.9 mph - N/A   Partly Cloudy
1:35 AM 53.6 °F - 51.8 °F 94% 29.81 in 10.0 mi NNW 9.2 mph - N/A   Partly Cloudy
1:55 AM 53.6 °F - 51.8 °F 94% 29.83 in 10.0 mi NNW 12.7 mph - N/A   Scattered Clouds
2:15 AM 55.4 °F - 53.6 °F 94% 29.84 in 10.0 mi North 12.7 mph 19.6 mph N/A   Mostly Cloudy
2:35 AM 55.4 °F - 51.8 °F 88% 29.85 in 10.0 mi North 15.0 mph 19.6 mph N/A   Mostly Cloudy
2:55 AM 55.4 °F - 50.0 °F 82% 29.85 in 10.0 mi North 10.4 mph 20.7 mph N/A   Overcast
3:15 AM 53.6 °F - 50.0 °F 88% 29.86 in 10.0 mi North 9.2 mph - N/A   Overcast
3:35 AM 53.6 °F - 50.0 °F 88% 29.86 in 10.0 mi North 11.5 mph - N/A   Overcast
3:55 AM 53.6 °F - 48.2 °F 82% 29.87 in 10.0 mi NNW 13.8 mph 18.4 mph N/A   Overcast
4:15 AM 53.6 °F - 48.2 °F 82% 29.87 in 10.0 mi NNW 18.4 mph 23.0 mph N/A   Overcast
4:35 AM 53.6 °F - 48.2 °F 82% 29.88 in 10.0 mi North 17.3 mph 23.0 mph N/A   Overcast
4:55 AM 53.6 °F - 46.4 °F 77% 29.89 in 10.0 mi NNW 16.1 mph 21.9 mph N/A   Overcast
5:15 AM 53.6 °F - 44.6 °F 72% 29.89 in 10.0 mi North 12.7 mph 21.9 mph N/A   Overcast
5:35 AM 53.6 °F - 44.6 °F 72% 29.90 in 10.0 mi North 13.8 mph 21.9 mph N/A   Overcast
5:55 AM 51.8 °F - 44.6 °F 76% 29.91 in 10.0 mi North 18.4 mph 25.3 mph N/A   Overcast
6:15 AM 50.0 °F - 44.6 °F 82% 29.92 in 10.0 mi North 25.3 mph 29.9 mph N/A   Overcast
6:35 AM 50.0 °F - 44.6 °F 82% 29.93 in 10.0 mi North 15.0 mph 24.2 mph N/A   Overcast
6:55 AM 48.2 °F - 39.2 °F 71% 29.95 in 10.0 mi North 27.6 mph 33.4 mph N/A   Overcast
7:15 AM 46.4 °F 38.7 °F 37.4 °F 71% 29.97 in 10.0 mi NNW 20.7 mph 27.6 mph N/A   Overcast
7:35 AM 46.4 °F 39.0 °F 35.6 °F 66% 29.97 in 10.0 mi NNW 19.6 mph 29.9 mph N/A   Overcast
7:55 AM 46.4 °F 39.5 °F 35.6 °F 66% 29.99 in 10.0 mi NNW 17.3 mph 26.5 mph N/A   Scattered Clouds
8:15 AM 46.4 °F 37.9 °F 32.0 °F 57% 29.99 in 10.0 mi North 25.3 mph 32.2 mph N/A   Clear
8:35 AM 46.4 °F 38.3 °F 32.0 °F 57% 30.00 in 10.0 mi NNW 23.0 mph 33.4 mph N/A   Clear
8:55 AM 46.4 °F 38.3 °F 32.0 °F 57% 30.01 in 10.0 mi NNW 23.0 mph 31.1 mph N/A   Clear
9:15 AM 46.4 °F 38.1 °F 32.0 °F 57% 30.02 in 10.0 mi North 24.2 mph 33.4 mph N/A   Clear
9:35 AM 46.4 °F 37.4 °F 30.2 °F 53% 30.02 in 10.0 mi NNW 28.8 mph 39.1 mph N/A   Clear
9:55 AM 46.4 °F 38.3 °F 30.2 °F 53% 30.03 in 10.0 mi North 23.0 mph 36.8 mph N/A   Clear
10:15 AM 46.4 °F 37.4 °F 32.0 °F 57% 30.04 in 10.0 mi NNW 28.8 mph 34.5 mph N/A   Clear
10:35 AM 46.4 °F 37.5 °F 32.0 °F 57% 30.06 in 10.0 mi North 27.6 mph 36.8 mph N/A   Clear
10:55 AM 46.4 °F 37.4 °F 32.0 °F 57% 30.07 in 10.0 mi North 28.8 mph 35.7 mph N/A   Partly Cloudy
11:15 AM 46.4 °F 37.0 °F 32.0 °F 57% 30.09 in 10.0 mi NNW 31.1 mph 38.0 mph N/A   Mostly Cloudy
11:35 AM 44.6 °F 35.7 °F 32.0 °F 61% 30.10 in 10.0 mi North 24.2 mph 35.7 mph N/A   Overcast
11:55 AM 46.4 °F 37.4 °F 32.0 °F 57% 30.10 in 10.0 mi NNW 28.8 mph 36.8 mph N/A   Overcast
12:15 PM 46.4 °F 38.5 °F 32.0 °F 57% 30.11 in 10.0 mi North 21.9 mph 38.0 mph N/A   Overcast
12:35 PM 46.4 °F 37.7 °F 32.0 °F 57% 30.11 in 10.0 mi NNW 26.5 mph 36.8 mph N/A   Overcast
12:55 PM 44.6 °F 35.7 °F 32.0 °F 61% 30.11 in 10.0 mi North 24.2 mph 38.0 mph N/A   Overcast
1:15 PM 44.6 °F 35.3 °F 32.0 °F 61% 30.12 in 10.0 mi NNW 26.5 mph 36.8 mph N/A   Overcast
1:35 PM 46.4 °F 38.5 °F 32.0 °F 57% 30.11 in 10.0 mi North 21.9 mph 33.4 mph N/A   Overcast
1:55 PM 46.4 °F 38.1 °F 32.0 °F 57% 30.10 in 10.0 mi North 24.2 mph 33.4 mph N/A   Overcast
2:15 PM 48.2 °F - 32.0 °F 54% 30.09 in 10.0 mi North 24.2 mph 33.4 mph N/A   Overcast
2:35 PM 50.0 °F - 32.0 °F 50% 30.07 in 10.0 mi NNW 23.0 mph 33.4 mph N/A   Overcast
2:55 PM 50.0 °F - 32.0 °F 50% 30.06 in 10.0 mi North 17.3 mph 28.8 mph N/A   Overcast
3:15 PM 51.8 °F - 33.8 °F 50% 30.05 in 10.0 mi North 21.9 mph 33.4 mph N/A   Overcast
3:35 PM 51.8 °F - 32.0 °F 47% 30.05 in 10.0 mi North 20.7 mph 29.9 mph N/A   Overcast
3:55 PM 51.8 °F - 32.0 °F 47% 30.05 in 10.0 mi North 24.2 mph 32.2 mph N/A   Overcast
4:15 PM 50.0 °F - 32.0 °F 50% 30.05 in 10.0 mi North 24.2 mph 36.8 mph N/A   Overcast
4:35 PM 50.0 °F - 32.0 °F 50% 30.05 in 10.0 mi North 19.6 mph 31.1 mph N/A   Overcast
4:55 PM 51.8 °F - 32.0 °F 47% 30.05 in 10.0 mi North 27.6 mph 35.7 mph N/A   Overcast
5:15 PM 50.0 °F - 32.0 °F 50% 30.05 in 10.0 mi North 27.6 mph 34.5 mph N/A   Overcast
5:35 PM 50.0 °F - 32.0 °F 50% 30.05 in 10.0 mi NNW 26.5 mph 32.2 mph N/A   Overcast
5:55 PM 48.2 °F - 32.0 °F 54% 30.06 in 10.0 mi North 25.3 mph 33.4 mph N/A   Overcast
6:15 PM 48.2 °F - 32.0 °F 54% 30.06 in 10.0 mi NNW 20.7 mph 29.9 mph N/A   Overcast
6:35 PM 50.0 °F - 32.0 °F 50% 30.06 in 10.0 mi NNW 25.3 mph 32.2 mph N/A   Overcast
6:55 PM 48.2 °F - 32.0 °F 54% 30.07 in 10.0 mi NNW 26.5 mph 31.1 mph N/A   Overcast
7:15 PM 48.2 °F - 32.0 °F 54% 30.08 in 10.0 mi NNW 23.0 mph 28.8 mph N/A   Overcast
7:35 PM 48.2 °F - 32.0 °F 54% 30.08 in 10.0 mi NNW 16.1 mph 25.3 mph N/A   Overcast
7:55 PM 48.2 °F - 30.2 °F 50% 30.09 in 10.0 mi NNW 21.9 mph 31.1 mph N/A   Overcast
8:15 PM 46.4 °F 38.7 °F 32.0 °F 57% 30.09 in 10.0 mi North 20.7 mph 28.8 mph N/A   Mostly Cloudy
8:35 PM 46.4 °F 39.5 °F 32.0 °F 57% 30.09 in 10.0 mi NNW 17.3 mph 27.6 mph N/A   Mostly Cloudy
8:55 PM 46.4 °F 39.5 °F 30.2 °F 53% 30.10 in 10.0 mi North 17.3 mph 25.3 mph N/A   Mostly Cloudy
9:15 PM 46.4 °F 39.8 °F 32.0 °F 57% 30.10 in 10.0 mi North 16.1 mph 21.9 mph N/A   Overcast
9:35 PM 46.4 °F 40.4 °F 32.0 °F 57% 30.10 in 10.0 mi North 13.8 mph 20.7 mph N/A   Overcast
9:55 PM 44.6 °F 37.4 °F 32.0 °F 61% 30.11 in 10.0 mi NNW 16.1 mph 19.6 mph N/A   Overcast
10:15 PM 46.4 °F 40.7 °F 30.2 °F 53% 30.11 in 10.0 mi North 12.7 mph 18.4 mph N/A   Overcast
10:35 PM 44.6 °F 39.2 °F 30.2 °F 57% 30.11 in 10.0 mi North 10.4 mph - N/A   Overcast
10:55 PM 44.6 °F 38.8 °F 32.0 °F 61% 30.11 in 10.0 mi North 11.5 mph 18.4 mph N/A   Overcast
11:15 PM 44.6 °F 40.2 °F 30.2 °F 57% 30.11 in 10.0 mi North 8.1 mph - N/A   Overcast
11:35 PM 44.6 °F 38.8 °F 30.2 °F 57% 30.11 in 10.0 mi NNW 11.5 mph - N/A   Overcast
11:55 PM 44.6 °F 39.2 °F 30.2 °F 57% 30.12 in 10.0 mi North 10.4 mph 16.1 mph N/A   Overcast